"2016-03-03 00:00:00",1424091,15.8,333.6,9.01,1.626,14.63,104.0391,9.61,10.71,15.79,0,110.4,13.12,10.40,295.6
"2016-03-03 00:00:30",1424092,14.46,326.5,7.104,1.52,15.4,104.0383,9.61,10.81,16.1,0,110.3,13.13,10.40,288.5
"2016-03-03 00:01:00",1424093,13.46,324.9,7.737,1.633,15.43,104.04,9.62,10.81,16.19,0,110.4,13.12,10.40,286.9
"2016-03-03 00:01:30",1424094,14.67,326.8,9.08,1.43,14.76,104.0406,9.62,10.76,15.85,0,110.4,13.12,10.40,288.8
"2016-03-03 00:02:00",1424095,13.79,331,8.97,1.744,14.6,104.0428,9.62,10.78,15.82,0,110.3,13.12,10.41,293.0
"2016-03-03 00:02:30",1424096,13.77,329,8.15,1.49,14.43,104.042,9.62,10.68,15.75,0,110.4,13.12,10.41,291.0
"2016-03-03 00:03:00",1424097,12.83,318.2,9.17,1.551,14.63,104.0414,9.62,10.74,16.06,0,110.4,13.13,10.41,280.2
"2016-03-03 00:03:30",1424098,13.24,316.6,7.24,1.729,14.4,104.0403,9.62,10.74,16.2,0,110.4,13.13,10.40,278.6
"2016-03-03 00:04:00",1424099,12.93,318.4,7.01,1.437,14.83,104.0386,9.61,10.72,15.79,0,110.4,13.13,10.40,280.4
"2016-03-03 00:04:30",1424100,14.57,318.1,7.893,1.744,14.74,104.0397,9.62,10.79,15.88,0,110.4,13.13,10.40,280.1
"2016-03-03 00:05:00",1424101,12.95,310.1,12.06,1.796,14.08,104.0417,9.62,10.69,15.41,0,110.4,13.13,10.41,272.1
"2016-03-03 00:05:30",1424102,11.88,323.6,7.033,1.571,13.55,104.0403,9.62,10.7,15.61,0,110.4,13.13,10.40,285.6
"2016-03-03 00:06:00",1424103,12.12,329.2,10.39,1.599,14.76,104.0406,9.62,10.77,15.75,0,110.3,13.13,10.40,291.2
"2016-03-03 00:06:30",1424104,11.64,319.4,8.58,1.662,14.13,104.0425,9.62,10.73,16.06,0,110.4,13.13,10.41,281.4
"2016-03-03 00:07:00",1424105,12.8,314.1,8.11,1.749,14.04,104.0431,9.62,10.77,16.49,0,110.3,13.13,10.41,276.1
"2016-03-03 00:07:30",1424106,13.71,314.2,7.62,1.446,13.9,104.0425,9.62,10.74,16.46,0,110.3,13.13,10.41,276.2
"2016-03-03 00:08:00",1424107,12.26,321.4,8.85,1.573,14,104.0397,9.62,10.68,16.22,0,110.4,13.14,10.40,283.4
"2016-03-03 00:08:30",1424108,12.26,326.3,6.463,1.575,13.83,104.0335,9.6,10.75,16.47,0,110.4,13.13,10.39,288.3
"2016-03-03 00:09:00",1424109,14.67,331.7,10.89,1.587,14.99,104.0296,9.59,10.78,15.68,0,110.3,13.14,10.38,293.7
"2016-03-03 00:09:30",1424110,14.26,331.6,6.128,1.136,14.52,104.029,9.59,10.73,16.31,0,110.4,13.14,10.37,293.6
"2016-03-03 00:10:00",1424111,17.1,340.7,8.01,1.307,14.93,104.0287,9.59,10.73,15.45,0,110.3,13.13,10.37,302.7
"2016-03-03 00:10:30",1424112,19.58,334.6,7.277,1.645,14.84,104.0284,9.59,10.77,15.5,0,110.3,13.13,10.37,296.6
"2016-03-03 00:11:00",1424113,18,326.8,6.831,1.454,14.86,104.0284,9.59,10.74,15.79,0,110.4,13.14,10.37,288.8
"2016-03-03 00:11:30",1424114,17.53,331.4,8.38,1.561,15.67,104.0284,9.59,10.78,15.73,0,110.4,13.14,10.37,293.4
"2016-03-03 00:12:00",1424115,18.6,335.4,6.95,2.2,16.16,104.0284,9.59,10.82,15.4,0,110.3,13.13,10.37,297.4
"2016-03-03 00:12:30",1424116,16.9,330,8.11,1.756,14.82,104.0284,9.59,10.75,15.41,0,110.4,13.13,10.37,292.0
"2016-03-03 00:13:00",1424117,14.17,323.1,9.6,2.036,14.17,104.0225,9.57,10.73,15.57,0,110.3,13.13,10.36,285.1
"2016-03-03 00:13:30",1424118,15.22,323.6,7.924,1.624,13.96,104.0163,9.56,10.65,15.81,0,110.3,13.14,10.34,285.6
"2016-03-03 00:14:00",1424119,16.3,324.4,8.6,1.327,14.3,104.0084,9.54,10.71,15.95,0,110.3,13.14,10.32,286.4
"2016-03-03 00:14:30",1424120,15.02,334.2,6.974,1.858,14.81,104.0011,9.52,10.73,15.63,0,110.3,13.14,10.30,296.2
"2016-03-03 00:15:00",1424121,14.01,331.2,9.26,1.426,15.69,103.9957,9.5,10.75,15.07,0,110.3,13.14,10.29,293.2
"2016-03-03 00:15:30",1424122,13.53,328.1,7.734,1.207,15.11,103.9949,9.5,10.69,15.22,0,110.3,13.13,10.29,290.1
"2016-03-03 00:16:00",1424123,12.41,319.1,6.915,1.183,13.03,103.9946,9.5,10.56,15.62,0,110.3,13.13,10.29,281.1
"2016-03-03 00:16:30",1424124,14.29,326.5,5.99,1.354,14.67,103.9946,9.5,10.63,15.88,0,110.3,13.13,10.29,288.5
"2016-03-03 00:17:00",1424125,11.25,321.5,5.977,1.45,13.73,103.9946,9.5,10.68,16.1,0,110.3,13.13,10.29,283.5
"2016-03-03 00:17:30",1424126,11.54,329.7,9.47,1.331,14.84,103.9946,9.5,10.66,16.03,0,110.3,13.13,10.29,291.7
"2016-03-03 00:18:00",1424127,15.44,334.2,8.7,1.403,14.89,103.9946,9.5,10.7,15.89,0,110.3,13.13,10.29,296.2
"2016-03-03 00:18:30",1424128,15.16,332.9,7.114,1.348,14.95,103.9946,9.5,10.66,15.83,0,110.3,13.13,10.29,294.9
"2016-03-03 00:19:00",1424129,15.2,325,6.176,1.641,13.51,103.9946,9.5,10.59,15.9,0,110.3,13.13,10.29,287.0
"2016-03-03 00:19:30",1424130,16.83,326.1,6.653,1.795,15.12,103.9946,9.5,10.69,16.08,0,110.3,13.13,10.29,288.1
"2016-03-03 00:20:00",1424131,17.99,330.6,8.97,1.41,15.93,103.9946,9.5,10.69,15.06,0,110.3,13.13,10.29,292.6
"2016-03-03 00:20:30",1424132,15.03,338.1,10.22,1.575,15.54,103.9926,9.5,10.7,14.58,0,110.3,13.13,10.28,300.1
"2016-03-03 00:21:00",1424133,14.53,332.3,8.46,1.752,15.06,103.9895,9.49,10.64,15.7,0,110.3,13.14,10.27,294.3
"2016-03-03 00:21:30",1424134,17.12,326.9,5.777,2.077,13.98,103.9864,9.48,10.62,15.29,0,110.3,13.14,10.26,288.9
"2016-03-03 00:22:00",1424135,16.96,334.7,6.148,1.463,15.01,103.9844,9.47,10.61,14.63,0,110.3,13.14,10.26,296.7
"2016-03-03 00:22:30",1424136,18.49,328.5,8.52,1.976,14.64,103.9813,9.47,10.65,15.11,0,110.3,13.14,10.25,290.5
"2016-03-03 00:23:00",1424137,21.27,329.8,7.01,1.433,15.68,103.9779,9.46,10.67,15.25,0,110.3,13.14,10.24,291.8
"2016-03-03 00:23:30",1424138,21.27,334,7.128,1.498,16.16,103.9774,9.46,10.75,15.34,0,110.3,13.14,10.24,296.0
"2016-03-03 00:24:00",1424139,21.07,334.4,7.542,1.697,16.32,103.9771,9.46,10.71,15.29,0,110.3,13.14,10.24,296.4
"2016-03-03 00:24:30",1424140,17.98,337.5,7.017,1.222,16.45,103.9743,9.45,10.7,15.37,0,110.3,13.14,10.23,299.5
"2016-03-03 00:25:00",1424141,18.95,333.4,6.244,1.553,15.98,103.972,9.44,10.72,15.57,0,110.3,13.14,10.23,295.4
"2016-03-03 00:25:30",1424142,19.68,339.4,7.888,1.403,15.51,103.9627,9.42,10.71,15.52,0,110.3,13.14,10.20,301.4
"2016-03-03 00:26:00",1424143,19.12,340.5,7.014,1.342,15.75,103.9607,9.41,10.69,15.31,0,110.3,13.14,10.20,302.5
"2016-03-03 00:26:30",1424144,18.64,338.9,7.051,1.345,15.88,103.9607,9.41,10.67,15.09,0,110.3,13.14,10.20,300.9
"2016-03-03 00:27:00",1424145,17.73,335,7.662,1.708,15.59,103.9607,9.41,10.7,15.42,0,110.3,13.14,10.20,297.0
"2016-03-03 00:27:30",1424146,17.69,330.2,7.634,1.775,15.86,103.9607,9.41,10.68,15.6,0,110.3,13.14,10.20,292.2
"2016-03-03 00:28:00",1424147,16.68,329,7.472,1.576,15.82,103.9607,9.41,10.7,15.85,0,110.3,13.14,10.20,291.0
"2016-03-03 00:28:30",1424148,16.95,331.1,7.756,1.537,15.3,103.9607,9.41,10.68,15.62,0,110.3,13.14,10.20,293.1
"2016-03-03 00:29:00",1424149,15.24,328.9,7.222,1.615,15.56,103.9602,9.41,10.66,15.19,0,110.3,13.14,10.20,290.9
"2016-03-03 00:29:30",1424150,15.06,327.7,7.187,1.484,15.69,103.9579,9.41,10.65,15.83,0,110.3,13.14,10.19,289.7
"2016-03-03 00:30:00",1424151,16.84,328.9,7.135,1.379,15.63,103.954,9.4,10.66,16.1,0,110.3,13.14,10.18,290.9
"2016-03-03 00:30:30",1424152,15.62,333.4,8.04,1.567,15.69,103.9486,9.38,10.68,15.89,0,110.3,13.14,10.17,295.4
"2016-03-03 00:31:00",1424153,19.25,341.8,6.523,2.715,15.54,103.9438,9.37,10.66,15.59,0,110.3,13.14,10.16,303.8
"2016-03-03 00:31:30",1424154,22.75,338.9,7.4,2.301,15.47,103.9447,9.37,10.62,14.25,0,110.3,13.14,10.16,300.9
"2016-03-03 00:32:00",1424155,21.66,332.1,7.281,1.499,15.93,103.945,9.37,10.64,14.45,0,110.3,13.13,10.16,294.1
"2016-03-03 00:32:30",1424156,19.71,333.8,8.69,1.417,16,103.9462,9.38,10.63,14.35,0,110.3,13.13,10.16,295.8
"2016-03-03 00:33:00",1424157,19.91,334.6,7.562,1.763,16,103.9459,9.38,10.65,14.56,0,110.3,13.13,10.16,296.6
"2016-03-03 00:33:30",1424158,18.33,336,7.78,1.838,15.83,103.9453,9.37,10.64,14.64,0,110.3,13.13,10.16,298.0
"2016-03-03 00:34:00",1424159,20.4,331.3,8.81,1.931,15.37,103.9445,9.37,10.65,14.71,0,110.3,13.13,10.16,293.3
"2016-03-03 00:34:30",1424160,20.08,323.2,6.693,1.661,15.65,103.9358,9.35,10.63,14.65,0,110.3,13.13,10.13,285.2
"2016-03-03 00:35:00",1424161,18.77,333.5,7.861,1.386,15.64,103.9336,9.34,10.61,14.76,0,110.3,13.13,10.13,295.5
"2016-03-03 00:35:30",1424162,18.41,332.5,7.179,1.496,15.76,103.9368,9.35,10.59,14.81,0,110.3,13.13,10.14,294.5
"2016-03-03 00:36:00",1424163,19.49,333,7.017,1.335,15.88,103.9369,9.35,10.62,14.91,0,110.3,13.13,10.14,295.0
"2016-03-03 00:36:30",1424164,19.59,334.2,6.879,1.561,15.77,103.938,9.36,10.61,14.81,0,110.3,13.13,10.14,296.2
"2016-03-03 00:37:00",1424165,20.41,328.8,8.05,1.969,15.78,103.9395,9.36,10.62,14.96,0,110.3,13.13,10.14,290.8
"2016-03-03 00:37:30",1424166,17.9,326.4,7.197,1.62,15.53,103.9389,9.36,10.6,15.19,0,110.3,13.14,10.14,288.4
"2016-03-03 00:38:00",1424167,16.02,329.6,7.818,1.423,15.72,103.9383,9.36,10.58,15.26,0,110.3,13.14,10.14,291.6
"2016-03-03 00:38:30",1424168,16.89,328.4,7.44,1.537,15.77,103.9384,9.36,10.58,15.46,0,110.3,13.14,10.14,290.4
"2016-03-03 00:39:00",1424169,17.02,333.5,7.608,2.139,15.62,103.9317,9.34,10.6,15.44,0,110.2,13.14,10.12,295.5
"2016-03-03 00:39:30",1424170,17.24,332.2,8.77,1.74,15.74,103.9259,9.32,10.59,15.37,0,110.3,13.14,10.11,294.2
"2016-03-03 00:40:00",1424171,20.11,338,6.657,1.867,15.69,103.9174,9.3,10.57,14.76,0,110.3,13.14,10.09,300.0
"2016-03-03 00:40:30",1424172,21.66,334.6,6.479,1.573,16.03,103.9172,9.3,10.55,14.61,0,110.3,13.14,10.09,296.6
"2016-03-03 00:41:00",1424173,20.18,337,7.075,1.37,15.83,103.9144,9.3,10.55,14.4,0,110.3,13.14,10.08,299.0
"2016-03-03 00:41:30",1424174,18.55,330.9,8.05,1.772,15.55,103.9165,9.3,10.57,14.85,0,110.3,13.14,10.09,292.9
"2016-03-03 00:42:00",1424175,20.86,329.1,6.726,1.915,15.71,103.915,9.3,10.54,14.89,0,110.3,13.14,10.08,291.1
"2016-03-03 00:42:30",1424176,22.19,327.3,6.87,1.783,15.83,103.9168,9.3,10.53,14.81,0,110.3,13.14,10.09,289.3
"2016-03-03 00:43:00",1424177,23.75,333.1,6.658,1.683,15.98,103.9165,9.3,10.55,14.88,0,110.3,13.14,10.09,295.1
"2016-03-03 00:43:30",1424178,23.48,330.2,6.88,1.617,16.23,103.9176,9.3,10.52,14.63,0,110.3,13.14,10.09,292.2
"2016-03-03 00:44:00",1424179,23.82,332.8,7.144,1.482,15.87,103.9185,9.31,10.52,14.74,0,110.3,13.14,10.09,294.8
"2016-03-03 00:44:30",1424180,23.22,332.9,6.737,1.365,15.99,103.916,9.3,10.5,14.64,0,110.3,13.14,10.08,294.9
"2016-03-03 00:45:00",1424181,21.97,329.5,7.09,1.665,16.13,103.9138,9.29,10.5,14.71,0,110.2,13.14,10.08,291.5
"2016-03-03 00:45:30",1424182,20.27,328.1,7.178,1.58,16.06,103.9121,9.29,10.49,14.97,0,110.3,13.14,10.07,290.1
"2016-03-03 00:46:00",1424183,20.41,330.2,7.107,1.717,16.08,103.9092,9.28,10.52,15.13,0,110.3,13.14,10.07,292.2
"2016-03-03 00:46:30",1424184,20.63,326.2,6.554,1.45,15.76,103.9006,9.26,10.52,15.18,0,110.3,13.15,10.04,288.2
"2016-03-03 00:47:00",1424185,20.32,327.9,6.818,1.435,15.82,103.8931,9.24,10.47,14.95,0,110.3,13.15,10.02,289.9
"2016-03-03 00:47:30",1424186,19.62,331.5,7.191,1.429,15.78,103.8932,9.24,10.47,14.8,0,110.3,13.15,10.03,293.5
"2016-03-03 00:48:00",1424187,21.29,328.8,7.809,2.128,15.58,103.8929,9.24,10.47,15.01,0,110.2,13.15,10.02,290.8
"2016-03-03 00:48:30",1424188,21.9,331.8,6.633,1.531,16.31,103.8938,9.24,10.46,14.64,0,110.2,13.15,10.03,293.8
"2016-03-03 00:49:00",1424189,21.19,332.1,6.345,1.358,16.2,103.8943,9.24,10.46,14.75,0,110.2,13.14,10.03,294.1
"2016-03-03 00:49:30",1424190,20.12,336,9.57,1.315,16.28,103.8943,9.24,10.45,14.65,0,110.2,13.14,10.03,298.0
"2016-03-03 00:50:00",1424191,21.89,330.3,6.954,1.612,15.85,103.8943,9.24,10.48,14.28,0,110.2,13.14,10.03,292.3
"2016-03-03 00:50:30",1424192,23.8,327.8,6.875,1.577,15.8,103.8943,9.24,10.42,14.24,0,110.3,13.14,10.03,289.8
"2016-03-03 00:51:00",1424193,21.78,329.3,7.946,2.086,16.18,103.8943,9.24,10.41,14.18,0,110.2,13.14,10.03,291.3
"2016-03-03 00:51:30",1424194,19.67,329.2,6.922,1.542,16.22,103.8943,9.24,10.46,14.39,0,110.2,13.14,10.03,291.2
"2016-03-03 00:52:00",1424195,20.08,327.9,6.953,1.617,15.77,103.8943,9.24,10.47,14.63,0,110.2,13.14,10.03,289.9
"2016-03-03 00:52:30",1424196,20.78,326.9,6.721,1.575,16.02,103.8943,9.24,10.46,14.63,0,110.2,13.14,10.03,288.9
"2016-03-03 00:53:00",1424197,20.43,328.1,7.163,1.309,15.82,103.8943,9.24,10.44,14.74,0,110.2,13.14,10.03,290.1
"2016-03-03 00:53:30",1424198,19.26,326.8,7.256,1.287,16.12,103.8941,9.24,10.44,14.96,0,110.2,13.14,10.03,288.8
"2016-03-03 00:54:00",1424199,18.92,322.6,6.535,1.53,16.02,103.8878,9.23,10.43,14.8,0,110.2,13.15,10.01,284.6
"2016-03-03 00:54:30",1424200,19.68,327,7.029,1.35,15.84,103.8814,9.21,10.47,14.69,0,110.2,13.15,9.99,289.0
"2016-03-03 00:55:00",1424201,18.02,323,6.796,1.634,15.78,103.8752,9.19,10.44,15.02,0,110.2,13.15,9.98,285.0
"2016-03-03 00:55:30",1424202,20.23,326.6,6.63,1.401,15.65,103.8732,9.19,10.43,15.16,0,110.2,13.15,9.97,288.6
"2016-03-03 00:56:00",1424203,21.28,325.6,7.554,1.301,16.09,103.865,9.17,10.41,15.23,0,110.2,13.15,9.95,287.6
"2016-03-03 00:56:30",1424204,21.08,328.7,6.741,1.429,16,103.8605,9.16,10.41,15.13,0,110.2,13.15,9.94,290.7
"2016-03-03 00:57:00",1424205,20.54,328.2,6.802,1.577,15.75,103.8605,9.16,10.43,15.34,0,110.2,13.15,9.94,290.2
"2016-03-03 00:57:30",1424206,19.5,330.2,7.015,1.632,15.93,103.8605,9.16,10.39,15.04,0,110.2,13.15,9.94,292.2
"2016-03-03 00:58:00",1424207,20.44,331.5,6.999,1.467,16.12,103.8602,9.16,10.38,14.77,0,110.2,13.15,9.94,293.5
"2016-03-03 00:58:30",1424208,18.7,330.7,8.57,1.778,16.08,103.8596,9.16,10.4,14.82,0,110.2,13.15,9.94,292.7
"2016-03-03 00:59:00",1424209,17.56,331.9,7.964,1.81,16.12,103.8588,9.15,10.39,14.95,0,110.2,13.15,9.94,293.9
"2016-03-03 00:59:30",1424210,17.63,326.2,7.438,1.539,15.6,103.8571,9.15,10.39,14.86,0,110.2,13.15,9.93,288.2
"2016-03-03 01:00:00",1424211,16.58,327,7.024,1.436,15.6,103.8554,9.14,10.35,15.01,0,110.2,13.15,9.93,289.0
"2016-03-03 01:00:30",1424212,18.08,329.1,7.05,1.27,15.89,103.8534,9.14,10.37,15.01,0,110.2,13.15,9.92,291.1
"2016-03-03 01:01:00",1424213,18.54,333.6,7.042,1.483,16.11,103.8507,9.13,10.37,15.14,0,110.2,13.15,9.92,295.6
"2016-03-03 01:01:30",1424214,17.95,331.9,8.5,1.584,15.89,103.8479,9.12,10.4,14.76,0,110.2,13.16,9.91,293.9
"2016-03-03 01:02:00",1424215,18.34,334.7,7.495,1.503,15.64,103.8485,9.13,10.41,14.65,0,110.2,13.16,9.91,296.7
"2016-03-03 01:02:30",1424216,16.31,337.5,7.594,1.614,15.63,103.8474,9.12,10.36,14.62,0,110.2,13.16,9.91,299.5
"2016-03-03 01:03:00",1424217,18.24,334.5,6.895,1.358,15.69,103.8469,9.12,10.37,14.72,0,110.2,13.16,9.91,296.5
"2016-03-03 01:03:30",1424218,17.91,333.9,6.469,1.355,15.41,103.8504,9.13,10.37,14.98,0,110.2,13.16,9.92,295.9
"2016-03-03 01:04:00",1424219,17.13,331.6,7.3,1.561,15.89,103.8457,9.12,10.35,14.98,0,110.2,13.16,9.90,293.6
"2016-03-03 01:04:30",1424220,16.93,335.9,7.526,1.585,15.81,103.8407,9.11,10.36,14.94,0,110.2,13.15,9.89,297.9
"2016-03-03 01:05:00",1424221,18.73,327.3,7.28,1.499,15.61,103.8421,9.11,10.35,14.78,0,110.2,13.15,9.89,289.3
"2016-03-03 01:05:30",1424222,18.11,327,6.999,1.279,15.61,103.8439,9.11,10.38,14.94,0,110.2,13.16,9.90,289.0
"2016-03-03 01:06:00",1424223,17.44,325.6,7.827,1.554,15.36,103.8454,9.12,10.33,15.15,0,110.2,13.15,9.90,287.6
"2016-03-03 01:06:30",1424224,15.97,335.6,8.29,1.605,15.53,103.8446,9.12,10.34,15.19,0,110.2,13.16,9.90,297.6
"2016-03-03 01:07:00",1424225,16.17,333,8.07,1.466,15.82,103.8356,9.09,10.32,15.13,0,110.2,13.15,9.88,295.0
"2016-03-03 01:07:30",1424226,15.27,335.5,6.566,1.335,15.7,103.8325,9.09,10.35,14.99,0,110.1,13.15,9.87,297.5
"2016-03-03 01:08:00",1424227,15.84,332.8,6.59,1.372,15.79,103.8349,9.09,10.3,14.87,0,110.2,13.15,9.88,294.8
"2016-03-03 01:08:30",1424228,16.11,334.5,6.367,1.449,15.41,103.8347,9.09,10.32,15.03,0,110.2,13.15,9.88,296.5
"2016-03-03 01:09:00",1424229,16.11,334.2,7.227,1.523,15.69,103.8237,9.06,10.3,15.16,0,110.2,13.16,9.85,296.2
"2016-03-03 01:09:30",1424230,15.03,333.6,7.146,1.343,15.63,103.8215,9.06,10.29,14.97,0,110.2,13.16,9.84,295.6
"2016-03-03 01:10:00",1424231,15.48,338,6.895,1.508,15.41,103.8229,9.06,10.3,15.11,0,110.2,13.16,9.84,300.0
"2016-03-03 01:10:30",1424232,16.32,334.3,6.926,1.472,15.34,103.8212,9.06,10.3,14.78,0,110.2,13.16,9.84,296.3
"2016-03-03 01:11:00",1424233,15.77,331.5,7.236,1.488,15.74,103.8235,9.06,10.28,14.7,0,110.2,13.16,9.85,293.5
"2016-03-03 01:11:30",1424234,16.5,329.6,7.475,1.35,15.48,103.8241,9.06,10.28,14.88,0,110.2,13.16,9.85,291.6
"2016-03-03 01:12:00",1424235,14.87,331.7,6.766,1.309,15.26,103.8245,9.07,10.27,15.15,0,110.2,13.16,9.85,293.7
"2016-03-03 01:12:30",1424236,15.14,329.9,8.06,1.502,15.66,103.8194,9.05,10.25,15.3,0,110.2,13.16,9.84,291.9
"2016-03-03 01:13:00",1424237,14.8,328.1,6.91,1.564,15.62,103.8126,9.03,10.26,15.37,0,110.2,13.16,9.82,290.1
"2016-03-03 01:13:30",1424238,14.8,338.2,7.674,1.344,15.11,103.8067,9.02,10.26,15.4,0,110.2,13.16,9.80,300.2
"2016-03-03 01:14:00",1424239,14.53,341.5,7.18,1.274,15.53,103.7971,9,10.25,15.13,0,110.2,13.16,9.78,303.5
"2016-03-03 01:14:30",1424240,13.23,335.6,7.05,1.491,14.08,103.7943,8.99,10.12,14.68,0,110.2,13.17,9.77,297.6
"2016-03-03 01:15:00",1424241,12.27,325.9,1.368,0.606,11.53,103.794,8.99,9.95,14.66,0,110.2,13.21,9.77,287.9
"2016-03-03 01:15:30",1424242,12.17,329,8.05,1.147,13.01,103.794,8.99,10,14.83,0,110.2,13.17,9.77,291.0
"2016-03-03 01:16:00",1424243,14.17,334.6,8.01,1.73,15.5,103.794,8.99,10.21,14.99,0,110.2,13.17,9.77,296.6
"2016-03-03 01:16:30",1424244,15.53,333.9,7.116,1.267,16.24,103.794,8.99,10.22,14.68,0,110.2,13.17,9.77,295.9
"2016-03-03 01:17:00",1424245,14.8,337.8,7.206,1.292,16.22,103.794,8.99,10.2,14.72,0,110.2,13.17,9.77,299.8
"2016-03-03 01:17:30",1424246,14.95,336.3,6.636,1.279,16.1,103.7935,8.99,10.18,14.76,0,110.2,13.17,9.77,298.3
"2016-03-03 01:18:00",1424247,14.56,335.7,6.885,1.413,15.55,103.7929,8.98,10.18,14.64,0,110.2,13.17,9.77,297.7
"2016-03-03 01:18:30",1424248,14.33,326.9,10.28,1.523,13.68,103.7898,8.98,10.06,14.65,0,110.2,13.17,9.76,288.9
"2016-03-03 01:19:00",1424249,13.48,326,2.983,0.935,11.89,103.7867,8.97,9.95,14.55,0,110.2,13.17,9.75,288.0
"2016-03-03 01:19:30",1424250,14.51,336.3,6.664,1.512,14.89,103.7853,8.96,10.08,14.48,0,110.2,13.17,9.75,298.3
"2016-03-03 01:20:00",1424251,13.19,335.9,6.827,1.517,14.6,103.7816,8.96,10.14,14.59,0,110.2,13.17,9.74,297.9
"2016-03-03 01:20:30",1424252,14.44,334.7,7.609,1.509,15.35,103.7805,8.95,10.16,14.71,0,110.2,13.17,9.74,296.7
"2016-03-03 01:21:00",1424253,14.34,332,7.967,1.371,15.49,103.7777,8.95,10.15,14.92,0,110.2,13.17,9.73,294.0
"2016-03-03 01:21:30",1424254,14.5,336.9,7.064,1.318,15.32,103.7768,8.94,10.11,14.72,0,110.2,13.17,9.73,298.9
"2016-03-03 01:22:00",1424255,12.43,334.6,7.742,1.304,13.57,103.7751,8.94,10.09,14.75,0,110.2,13.17,9.72,296.6
"2016-03-03 01:22:30",1424256,12.61,334.1,7.313,1.265,13.53,103.7698,8.93,10.05,14.73,0,110.2,13.17,9.71,296.1
"2016-03-03 01:23:00",1424257,12.09,332.1,6.507,0.983,12.85,103.763,8.91,9.97,14.62,0,110.2,13.17,9.69,294.1
"2016-03-03 01:23:30",1424258,13.5,338.3,7.504,1.37,15.47,103.761,8.9,10.14,15.06,0,110.2,13.17,9.69,300.3
"2016-03-03 01:24:00",1424259,12.44,336.5,8.2,1.609,15.23,103.7602,8.9,10.11,14.95,0,110.2,13.17,9.68,298.5
"2016-03-03 01:24:30",1424260,11.66,338.8,8.13,1.461,14.83,103.7602,8.9,10.13,14.93,0,110.2,13.17,9.68,300.8
"2016-03-03 01:25:00",1424261,12.44,329.6,8.7,2.056,14.08,103.7602,8.9,10.09,14.92,0,110.2,13.17,9.68,291.6
"2016-03-03 01:25:30",1424262,12.78,328.5,7.433,1.622,13.05,103.7602,8.9,10,14.65,0,110.2,13.17,9.68,290.5
"2016-03-03 01:26:00",1424263,13.95,327.4,5.935,1.581,14.12,103.7602,8.9,10.07,14.65,0,110.2,13.17,9.68,289.4
"2016-03-03 01:26:30",1424264,15.08,333.6,7.448,1.383,15.79,103.7562,8.89,10.13,14.57,0,110.2,13.17,9.67,295.6
"2016-03-03 01:27:00",1424265,14.7,334.5,7.239,1.493,15.26,103.7469,8.87,10.12,14.69,0,110.2,13.17,9.65,296.5
"2016-03-03 01:27:30",1424266,14.92,336.8,7.165,1.518,15.54,103.7325,8.83,10.13,14.78,0,110.1,13.17,9.61,298.8
"2016-03-03 01:28:00",1424267,14.22,340.7,6.866,1.418,15.68,103.7263,8.81,10.13,14.63,0,110.1,13.17,9.60,302.7
"2016-03-03 01:28:30",1424268,13.62,336.6,6.93,1.264,15.69,103.7263,8.81,10.11,14.58,0,110.2,13.17,9.60,298.6
"2016-03-03 01:29:00",1424269,13.09,335.4,7.229,1.543,14.39,103.7269,8.82,10.11,14.64,0,110.2,13.17,9.60,297.4
"2016-03-03 01:29:30",1424270,10.95,329.8,1.593,0.3,11.64,103.7272,8.82,9.82,14.18,0,110.2,13.22,9.60,291.8
"2016-03-03 01:30:00",1424271,10.15,329.5,1.481,0.608,11.71,103.7269,8.82,9.81,14.21,0,110.2,13.22,9.60,291.5
"2016-03-03 01:30:30",1424272,10.85,339.5,8.02,1.262,14.03,103.7269,8.82,9.96,14.62,0,110.2,13.18,9.60,301.5
"2016-03-03 01:31:00",1424273,11.97,343.3,6.924,1.424,15.78,103.7224,8.8,10.05,14.6,0,110.2,13.18,9.59,305.3
"2016-03-03 01:31:30",1424274,11.89,339.6,7.098,1.264,15.51,103.7142,8.78,10.02,14.55,0,110.2,13.18,9.57,301.6
"2016-03-03 01:32:00",1424275,12.09,337.9,7.26,1.311,15.26,103.7076,8.77,10.02,14.66,0,110.1,13.18,9.55,299.9
"2016-03-03 01:32:30",1424276,10.07,331.4,6.253,0.911,12.26,103.7014,8.75,9.8,14.26,0,110.1,13.18,9.53,293.4
"2016-03-03 01:33:00",1424277,10.71,333.4,8.61,1.269,13.02,103.6977,8.74,9.86,14.43,0,110.1,13.18,9.52,295.4
"2016-03-03 01:33:30",1424278,10.62,336.5,6.294,1.378,13.81,103.7009,8.75,9.91,14.47,0,110.1,13.18,9.53,298.5
"2016-03-03 01:34:00",1424279,11.35,339.1,7.394,1.487,15.36,103.6997,8.75,10.05,14.56,0,110.2,13.18,9.53,301.1
"2016-03-03 01:34:30",1424280,14.19,327.3,7.341,1.504,14.9,103.7015,8.75,9.99,14.48,0,110.1,13.18,9.53,289.3
"2016-03-03 01:35:00",1424281,14.29,331.9,6.743,1.42,15.01,103.7021,8.75,9.99,14.36,0,110.2,13.18,9.53,293.9
"2016-03-03 01:35:30",1424282,12.31,335.9,8.12,1.713,14.96,103.7035,8.76,9.99,13.95,0,110.1,13.18,9.54,297.9
"2016-03-03 01:36:00",1424283,11.58,324.2,7.161,1.367,13.34,103.7024,8.75,9.85,14,0,110.1,13.18,9.54,286.2
"2016-03-03 01:36:30",1424284,13.19,329.6,8.05,1.362,14.42,103.6996,8.75,9.94,14.58,0,110.1,13.18,9.53,291.6
"2016-03-03 01:37:00",1424285,12.27,324.5,6.663,0.978,12.91,103.6929,8.73,9.86,14.53,0,110.1,13.19,9.51,286.5
"2016-03-03 01:37:30",1424286,13.24,334.5,6.886,1.399,15.35,103.6882,8.72,9.97,14.55,0,110.2,13.19,9.50,296.5
"2016-03-03 01:38:00",1424287,13.12,332.3,7.138,1.421,15.13,103.6804,8.7,9.97,14.36,0,110.1,13.19,9.48,294.3
"2016-03-03 01:38:30",1424288,13.34,330.4,7.687,1.577,14.44,103.6773,8.69,9.94,14.53,0,110.1,13.19,9.47,292.4
"2016-03-03 01:39:00",1424289,13.83,326,6.834,1.844,13.99,103.6796,8.69,9.9,14.41,0,110.1,13.18,9.48,288.0
"2016-03-03 01:39:30",1424290,12.96,328.3,7.984,1.636,13.33,103.6805,8.7,9.83,14.34,0,110.1,13.18,9.48,290.3
"2016-03-03 01:40:00",1424291,11.63,334.7,7.99,1.455,14.02,103.679,8.69,9.9,14.68,0,110.1,13.18,9.48,296.7
"2016-03-03 01:40:30",1424292,12.48,335.6,6.773,1.322,15.17,103.6825,8.7,9.93,14.6,0,110.1,13.18,9.48,297.6
"2016-03-03 01:41:00",1424293,13.69,336.9,6.844,1.218,15.15,103.6828,8.7,9.88,14.5,0,110.1,13.18,9.49,298.9
"2016-03-03 01:41:30",1424294,12.81,333.9,7.27,1.459,14.37,103.6784,8.69,9.86,14.43,0,110.1,13.17,9.47,295.9
"2016-03-03 01:42:00",1424295,11.62,335.5,7.697,1.381,14.39,103.6728,8.68,9.86,14.44,0,110.1,13.18,9.46,297.5
"2016-03-03 01:42:30",1424296,10.51,336.2,7.124,1.395,13.76,103.6705,8.67,9.75,14.15,0,110.1,13.18,9.45,298.2
"2016-03-03 01:43:00",1424297,11.03,335.8,6.626,1.509,13.86,103.6677,8.66,9.8,14.23,0,110.1,13.18,9.45,297.8
"2016-03-03 01:43:30",1424298,11.65,337.2,7.438,1.339,14.55,103.6683,8.67,9.88,14.55,0,110.1,13.18,9.45,299.2
"2016-03-03 01:44:00",1424299,12.15,338.5,7.63,1.453,14.98,103.6683,8.67,9.81,14.3,0,110.1,13.18,9.45,300.5
"2016-03-03 01:44:30",1424300,11.15,334.6,7.172,1.447,13.32,103.6703,8.67,9.79,14.35,0,110.1,13.19,9.45,296.6
"2016-03-03 01:45:00",1424301,13.77,338.5,6.527,1.58,14.65,103.6666,8.66,9.82,13.95,0,110.1,13.19,9.44,300.5
"2016-03-03 01:45:30",1424302,14.01,335.2,7.02,1.606,14.5,103.6696,8.67,9.76,13.24,0,110.1,13.19,9.45,297.2
"2016-03-03 01:46:00",1424303,12.85,335.8,7.686,1.389,14.74,103.6715,8.67,9.86,13.31,0,110.1,13.19,9.46,297.8
"2016-03-03 01:46:30",1424304,11.37,326.9,6.582,1.346,13.34,103.675,8.68,9.78,13.7,0,110.1,13.19,9.47,288.9
"2016-03-03 01:47:00",1424305,13.52,334.2,6.917,1.516,15.62,103.6736,8.68,9.83,13.85,0,110.1,13.19,9.46,296.2
"2016-03-03 01:47:30",1424306,11.49,327.6,6.131,1.622,13.3,103.6744,8.68,9.77,13.54,0,110.1,13.19,9.46,289.6
"2016-03-03 01:48:00",1424307,11.88,332,9.16,1.416,14.73,103.6745,8.68,9.85,13.79,0,110.1,13.19,9.46,294.0
"2016-03-03 01:48:30",1424308,13.55,325.4,7.854,1.935,14.03,103.6745,8.68,9.79,13.83,0,110.1,13.19,9.46,287.4